Regional Weather Roundup
Issued by NWS

Home | Current Version | Previous Version | Text Only | Print | Product List | Glossary Off
Versions: 1 2 3 4 5 6 7 8 9 10 11 12 13 14 15 16 17 18 19 20 21 22 23 24 25 26 27 28 29 30 31 32 33 34 35 36 37 38 39 40 41 42 43 44 45 46 47 48 49 50

000
ASUS43 KLMK 241102
RWRKY
KENTUCKY REGIONAL WEATHER ROUNDUP
NATIONAL WEATHER SERVICE LOUISVILLE KY
700 AM EDT WED AUG 24 2016

NOTE "FAIR" INDICATES FEW OR NO CLOUDS BELOW 12,000 FEET
WITH NO SIGNIFICANT WEATHER AND/OR OBSTRUCTIONS TO VISIBILITY.

KYZ001>023-026-027-061>063-070>075-241200-
WESTERN AND SOUTH CENTRAL KENTUCKY

CITY           SKY/WX    TMP DP  RH WIND       PRES   REMARKS
PADUCAH        MOCLDY    75  71  87 S8        30.14S
HENDERSON      PTCLDY    70  66  88 CALM      30.14S
OWENSBORO      CLOUDY    70  70 100 S6        30.17R
HOPKINSVILLE   CLOUDY    73  70  92 S3        30.18R
BOWLING GREEN  PTCLDY    70  67  90 CALM      30.19S
GLASGOW        PTCLDY    66  66 100 CALM      30.20S
$$

KYZ024-025-028>034-038-045-046-053-241200-
NORTH CENTRAL KENTUCKY

CITY           SKY/WX    TMP DP  RH WIND       PRES   REMARKS
LOUISVILLE/SDF CLOUDY    71  66  84 SE6       30.17R
LOUISVILLE/LOU CLOUDY    71  65  81 S3        30.18R
FORT KNOX      CLOUDY    67  65  93 S3        30.17R
$$

KYZ035>037-039>044-047>052-055>060-089>105-241200-
NORTHEAST KENTUCKY

CITY           SKY/WX    TMP DP  RH WIND       PRES   REMARKS
LEXINGTON      CLOUDY    66  63  90 S6        30.21S
COVINGTON      MOCLDY    67  62  84 S7        30.19R
FRANKFORT      CLOUDY    67  63  87 S3        30.19S
$$

KYZ054-064>069-076>088-106>120-241200-
SOUTHEAST KENTUCKY

CITY           SKY/WX    TMP DP  RH WIND       PRES   REMARKS
JACKSON        PTCLDY    64  62  93 CALM      30.25R
LONDON         CLOUDY    65  62  90 CALM      30.25R
SOMERSET       CLOUDY    63  63 100 CALM      30.25R
MIDDLESBORO    CLOUDY    62  62 100 CALM      30.28R
MONTICELLO     SUNNY    N/A N/A N/A W3        30.25R
$$





USA.gov is the U.S. government's official web portal to all federal, state and local government web resources and services.